EN

Hourly Weather Bolvadin

Today, 16 April, Friday

Time Temperature Precipitation Wind Pressure Humidity
00:00 +12°C° 0 mm 1 mps 675 mmHg 62%
01:00 +11°C° 0 mm 1 mps 675 mmHg 64%
02:00 +11°C° 0 mm 1 mps 674 mmHg 66%
03:00 +11°C° 0 mm 1 mps 674 mmHg 67%
04:00 +10°C° 0 mm 1 mps 674 mmHg 69%
05:00 +10°C° 0 mm 1 mps 674 mmHg 71%
06:00 +11°C° 0 mm 1 mps 675 mmHg 66%
07:00 +12°C° 0 mm 1 mps 675 mmHg 61%
08:00 +14°C° 0 mm 1 mps 676 mmHg 56%
09:00 +15°C° 0 mm 1 mps 676 mmHg 50%
10:00 +16°C° 0 mm 2 mps 676 mmHg 45%
11:00 +18°C° 0 mm 3 mps 676 mmHg 39%
12:00 +19°C° 0 mm 3 mps 676 mmHg 37%
13:00 +20°C° 0 mm 4 mps 676 mmHg 34%
14:00 +21°C° 0 mm 5 mps 676 mmHg 32%
15:00 +20°C° 0 mm 5 mps 676 mmHg 33%
16:00 +20°C° 0 mm 5 mps 676 mmHg 35%
17:00 +20°C° 0 mm 6 mps 676 mmHg 36%
18:00 +18°C° 0 mm 4 mps 676 mmHg 40%
19:00 +17°C° 0 mm 3 mps 676 mmHg 44%
20:00 +16°C° 0 mm 1 mps 676 mmHg 48%
21:00 +15°C° 0 mm 1 mps 676 mmHg 51%
22:00 +14°C° 0 mm 1 mps 676 mmHg 54%
23:00 +14°C° 0 mm 1 mps 676 mmHg 56%

Tomorrow, 17 April, Saturday

Time Temperature Precipitation Wind Pressure Humidity
00:00 +13°C° 0 mm 1 mps 676 mmHg 57%
01:00 +13°C° 0 mm 1 mps 676 mmHg 58%
02:00 +13°C° 0 mm 1 mps 676 mmHg 59%
03:00 +13°C° 0 mm 1 mps 676 mmHg 59%
04:00 +13°C° 0 mm 2 mps 676 mmHg 59%
05:00 +13°C° 0 mm 2 mps 675 mmHg 58%
06:00 +14°C° 0 mm 2 mps 676 mmHg 57%
07:00 +14°C° 0 mm 2 mps 677 mmHg 57%
08:00 +15°C° 0 mm 2 mps 677 mmHg 56%
09:00 +15°C° 0.4 mm 2 mps 677 mmHg 59%
10:00 +15°C° 0.4 mm 2 mps 677 mmHg 63%
11:00 +15°C° 0.4 mm 2 mps 678 mmHg 66%
12:00 +17°C° 0.1 mm 3 mps 677 mmHg 61%
13:00 +18°C° 0.1 mm 3 mps 677 mmHg 56%
14:00 +19°C° 0.1 mm 3 mps 677 mmHg 51%
15:00 +20°C° 0 mm 3 mps 676 mmHg 49%
16:00 +21°C° 0 mm 4 mps 676 mmHg 47%
17:00 +21°C° 0 mm 4 mps 676 mmHg 45%
18:00 +20°C° 0 mm 4 mps 676 mmHg 48%
19:00 +18°C° 0 mm 3 mps 676 mmHg 52%
20:00 +17°C° 0 mm 3 mps 675 mmHg 55%
21:00 +17°C° 0 mm 4 mps 675 mmHg 53%
22:00 +16°C° 0 mm 5 mps 676 mmHg 51%
23:00 +16°C° 0 mm 5 mps 676 mmHg 49%

Day after tomorrow, 18 April, Sunday

Time Temperature Precipitation Wind Pressure Humidity
00:00 +15°C° 0 mm 5 mps 676 mmHg 52%
01:00 +15°C° 0 mm 4 mps 675 mmHg 54%
02:00 +14°C° 0 mm 4 mps 675 mmHg 56%
03:00 +14°C° 0.2 mm 5 mps 676 mmHg 60%
04:00 +14°C° 0.2 mm 5 mps 676 mmHg 64%
05:00 +14°C° 0.2 mm 6 mps 677 mmHg 67%
06:00 +15°C° 0.1 mm 7 mps 677 mmHg 61%
07:00 +16°C° 0.1 mm 7 mps 677 mmHg 55%
08:00 +17°C° 0.1 mm 8 mps 677 mmHg 49%
09:00 +17°C° 0 mm 9 mps 677 mmHg 51%
10:00 +18°C° 0 mm 10 mps 677 mmHg 53%
11:00 +18°C° 0 mm 12 mps 677 mmHg 55%
12:00 +19°C° 0 mm 11 mps 678 mmHg 53%
13:00 +19°C° 0 mm 11 mps 678 mmHg 51%
14:00 +21°C° 0 mm 11 mps 678 mmHg 48%
15:00 +19°C° 0.1 mm 9 mps 678 mmHg 53%
16:00 +18°C° 0.1 mm 8 mps 678 mmHg 57%
17:00 +17°C° 0.1 mm 6 mps 678 mmHg 62%
18:00 +17°C° 0 mm 4 mps 678 mmHg 64%
19:00 +16°C° 0 mm 3 mps 678 mmHg 67%
20:00 +15°C° 0 mm 1 mps 678 mmHg 69%
21:00 +15°C° 0 mm 2 mps 677 mmHg 70%
22:00 +15°C° 0 mm 2 mps 677 mmHg 70%
23:00 +15°C° 0 mm 2 mps 676 mmHg 71%

19 April, Monday

Time Temperature Precipitation Wind Pressure Humidity
00:00 +14°C° 0 mm 2 mps 675 mmHg 71%
01:00 +14°C° 0 mm 2 mps 675 mmHg 72%
02:00 +14°C° 0 mm 2 mps 674 mmHg 73%
03:00 +14°C° 0 mm 2 mps 674 mmHg 72%
04:00 +14°C° 0 mm 2 mps 673 mmHg 72%
05:00 +14°C° 0 mm 1 mps 673 mmHg 71%
06:00 +15°C° 0 mm 2 mps 673 mmHg 62%
07:00 +17°C° 0 mm 3 mps 672 mmHg 53%
08:00 +19°C° 0 mm 4 mps 672 mmHg 43%
09:00 +20°C° 0 mm 6 mps 672 mmHg 39%
10:00 +22°C° 0 mm 9 mps 672 mmHg 35%
11:00 +23°C° 0 mm 11 mps 671 mmHg 31%
12:00 +23°C° 0 mm 11 mps 671 mmHg 31%
13:00 +24°C° 0 mm 11 mps 670 mmHg 31%
14:00 +24°C° 0 mm 12 mps 670 mmHg 32%
15:00 +22°C° 0 mm 11 mps 669 mmHg 39%
16:00 +19°C° 0 mm 10 mps 669 mmHg 47%
17:00 +17°C° 0 mm 9 mps 669 mmHg 54%
18:00 +16°C° 0 mm 8 mps 669 mmHg 57%
19:00 +13°C° 0 mm 8 mps 670 mmHg 59%
20:00 +11°C° 0 mm 8 mps 670 mmHg 61%
21:00 +10°C° 0 mm 8 mps 670 mmHg 60%
22:00 +9°C° 0 mm 7 mps 671 mmHg 59%
23:00 +8°C° 0 mm 6 mps 671 mmHg 58%

20 April, Tuesday

Time Temperature Precipitation Wind Pressure Humidity
00:00 +8°C° 0 mm 6 mps 671 mmHg 58%
01:00 +7°C° 0 mm 6 mps 671 mmHg 59%
02:00 +6°C° 0 mm 5 mps 671 mmHg 60%
03:00 +6°C° 0 mm 5 mps 672 mmHg 62%
04:00 +6°C° 0 mm 4 mps 672 mmHg 64%
05:00 +5°C° 0 mm 4 mps 672 mmHg 66%
06:00 +6°C° 0 mm 4 mps 673 mmHg 61%
07:00 +7°C° 0 mm 5 mps 673 mmHg 56%
08:00 +8°C° 0 mm 5 mps 674 mmHg 50%
09:00 +11°C° 0 mm 4 mps 674 mmHg 46%
10:00 +12°C° 0 mm 4 mps 674 mmHg 42%
11:00 +13°C° 0 mm 3 mps 675 mmHg 38%
12:00 +14°C° 0 mm 3 mps 675 mmHg 35%
13:00 +16°C° 0 mm 3 mps 674 mmHg 33%
14:00 +17°C° 0 mm 3 mps 674 mmHg 30%
15:00 +17°C° 0 mm 3 mps 674 mmHg 29%
16:00 +17°C° 0 mm 4 mps 674 mmHg 28%
17:00 +17°C° 0 mm 4 mps 674 mmHg 27%
18:00 +14°C° 0 mm 3 mps 674 mmHg 32%
19:00 +13°C° 0 mm 3 mps 674 mmHg 37%
20:00 +13°C° 0 mm 2 mps 674 mmHg 41%
21:00 +12°C° 0 mm 2 mps 674 mmHg 44%
22:00 +12°C° 0 mm 2 mps 674 mmHg 47%
23:00 +10°C° 0 mm 2 mps 674 mmHg 50%

21 April, Wednesday

Time Temperature Precipitation Wind Pressure Humidity
00:00 +10°C° 0 mm 1 mps 674 mmHg 54%
01:00 +10°C° 0 mm 1 mps 674 mmHg 57%
02:00 +9°C° 0 mm 1 mps 674 mmHg 60%
03:00 +9°C° 0 mm 1 mps 674 mmHg 63%
04:00 +9°C° 0 mm 1 mps 674 mmHg 65%
05:00 +8°C° 0 mm 1 mps 674 mmHg 68%
06:00 +9°C° 0 mm 1 mps 675 mmHg 63%
07:00 +11°C° 0 mm 1 mps 675 mmHg 59%
08:00 +12°C° 0 mm 1 mps 676 mmHg 54%
09:00 +13°C° 0 mm 1 mps 676 mmHg 48%
10:00 +14°C° 0 mm 2 mps 676 mmHg 43%
11:00 +15°C° 0 mm 2 mps 676 mmHg 37%
12:00 +16°C° 0 mm 2 mps 676 mmHg 34%
13:00 +17°C° 0 mm 2 mps 676 mmHg 31%
14:00 +18°C° 0 mm 2 mps 676 mmHg 28%
15:00 +18°C° 0 mm 3 mps 676 mmHg 28%
16:00 +18°C° 0 mm 3 mps 676 mmHg 28%
17:00 +18°C° 0 mm 3 mps 676 mmHg 27%
18:00 +16°C° 0 mm 3 mps 676 mmHg 32%
19:00 +14°C° 0 mm 3 mps 677 mmHg 37%
20:00 +13°C° 0 mm 3 mps 677 mmHg 42%
21:00 +13°C° 0 mm 2 mps 677 mmHg 45%
22:00 +12°C° 0 mm 2 mps 677 mmHg 48%
23:00 +12°C° 0 mm 1 mps 677 mmHg 52%
Show more

We Need Your Consent

Meteoprog and our Service Providers may store and access personal data such as cookies, device identifiers or other similar technologies on your device and process such data to personalise content and ads, as well as provide social media features and to analyse the traffic.

  • Store and/or access information on your device

    Cookies, device identifiers or other information can be stored or accessed on your device for the purposes indicated above.

  • Personalised ads and content, ad and content measurement, audience insights, and products development

    Ads and content can be personalised based on a profile. More data can be added to better personalise ads and content. Ad and content performance can be measured. Insights about the audience who saw the ads and content can be derived. Such data can be used to develop or improve user’s experience, systems and software.

By clicking ‘I Agree’ you will allow the use of indicated cookies, device identifiers, web beacons or other similar technologies. Your settings can be changed in the browser on your device.

For certain purposes, legitimate interests may be relied on, rather than consent. You can read more about this in our Privacy and Cookie Policy.